Location: *
(47.2969°N, 10.2930°E)
Time: 09:25:22
(UTC+00:00)

STARLINK-1204 - Pass Details

Date: 09 April 2020
Orbit: 548 x 551 km, 53.0° (Epoch: 25 May)

Event Time Altitude Azimuth Distance (km) Brightness Sun altitude
Rises 18:37:04 0° 298° (WNW) 2,720 9.5 -6.8°
Reaches altitude 10° 18:39:18 10° 298° (WNW) 1,824 8.0 -7.2°
Maximum altitude 18:43:27 86° 214° (SW) 555 3.6 -7.9°
Enters shadow 18:47:28 11° 122° (ESE) 1,767 5.5 -8.5°
